Date String (YYYY-MM-DD hh:mm:ss) UTC,Instrument flags,Ambient pressure (hPa),Sample flow (lpm),Bypass flow (lpm),Sample temperature (°C),Ambient temperature (°C),ASC tube jacket temperature (°C),LED temperature (°C),Box temperature (°C),Sample RH (%),Span deviation,Mass concentration (μg/m³),Mass concentration (μg/m³),Mass concentration (μg/m³)
DateTimeUTC,F1_M11,P_M11,Q1_M11,Q2_M11,T1_M11,T2_M11,T3_M11,T4_M11,T5_M11,U1_M11,ZSPAN_M11,X0_M11,X2_M11,X1_M11
2022-04-05 20:00:00,,0813.5,4.99,0.00,25.0,24.1,00.0,34.2,26.7,13.8,0000.0,0005.94,0001.40,0000.63
2022-04-05 20:01:00,,0813.5,5.00,0.00,25.0,24.0,00.0,34.1,26.6,13.7,0000.0,0005.82,0001.41,0000.64
2022-04-05 20:02:00,,0813.5,4.99,0.00,24.9,23.9,00.0,34.1,26.6,13.4,0000.0,0005.97,0001.39,0000.64
2022-04-05 20:03:00,,0813.5,5.00,0.00,24.9,23.9,00.0,34.1,26.5,13.7,0000.0,0006.12,0001.46,0000.65
2022-04-05 20:04:00,,0813.6,5.00,0.00,24.8,23.8,00.0,34.1,26.5,13.5,0000.0,0006.03,0001.49,0000.67
2022-04-05 20:05:00,,0813.6,5.00,0.00,24.8,23.9,00.0,34.0,26.5,13.9,0000.0,0005.41,0001.51,0000.69
2022-04-05 20:06:00,,0813.7,5.00,0.00,24.8,23.8,00.0,34.0,26.4,13.6,0000.0,0005.05,0001.52,0000.70
2022-04-05 20:07:00,,0813.7,5.00,0.00,24.7,23.8,00.0,34.0,26.4,13.6,0000.0,0004.82,0001.53,0000.71
2022-04-05 20:08:00,,0813.8,5.02,0.00,24.7,23.8,00.0,33.9,26.4,13.6,0000.0,0005.76,0001.55,0000.71
2022-04-05 20:09:00,,0814.2,4.99,0.00,24.7,23.7,00.0,33.9,26.3,13.2,0000.0,0005.71,0001.54,0000.71
2022-04-05 20:10:00,,0813.8,5.00,0.00,24.6,23.6,00.0,33.9,26.3,13.1,0000.0,0005.52,0001.51,0000.71
2022-04-05 20:11:00,,0813.8,5.00,0.00,24.6,23.7,00.0,33.9,26.3,13.5,0000.0,0006.08,0001.48,0000.71
2022-04-05 20:12:00,,0813.8,4.99,0.00,24.6,23.7,00.0,33.8,26.3,13.5,0000.0,0006.92,0001.45,0000.71
2022-04-05 20:13:00,,0813.8,5.00,0.00,24.6,23.7,00.0,33.8,26.3,13.2,0000.0,0006.93,0001.49,0000.71
2022-04-05 20:14:00,,0813.7,5.01,0.00,24.5,23.7,00.0,33.8,26.3,13.6,0000.0,0006.90,0001.45,0000.71
2022-04-05 20:15:00,,0813.9,5.00,0.00,24.5,23.6,00.0,33.8,26.2,13.9,0000.0,0006.83,0001.40,0000.71
2022-04-05 20:16:00,,0814.1,5.00,0.00,24.5,23.5,00.0,33.7,26.1,14.0,0000.0,0006.89,0001.40,0000.71
2022-04-05 20:17:00,,0814.0,5.00,0.00,24.4,23.5,00.0,33.7,26.1,14.1,0000.0,0008.17,0001.44,0000.71
2022-04-05 20:18:00,,0813.7,5.00,0.00,24.4,23.4,00.0,33.7,26.1,14.1,0000.0,0008.51,0001.43,0000.72
2022-04-05 20:19:00,,0813.7,5.00,0.00,24.3,23.4,00.0,33.6,26.0,14.0,0000.0,0007.97,0001.40,0000.73
2022-04-05 20:20:00,,0813.7,5.00,0.00,24.3,23.4,00.0,33.6,26.0,14.2,0000.0,0007.82,0001.43,0000.74
2022-04-05 20:21:00,,0813.7,4.99,0.00,24.3,23.4,00.0,33.6,26.0,14.6,0000.0,0007.42,0001.43,0000.73
2022-04-05 20:22:00,,0813.7,5.00,0.00,24.3,23.4,00.0,33.6,26.0,14.7,0000.0,0007.36,0001.45,0000.73
2022-04-05 20:23:00,,0813.9,5.01,0.00,24.3,23.4,00.0,33.5,26.0,14.7,0000.0,0006.84,0001.53,0000.74
2022-04-05 20:24:00,,0813.8,5.00,0.00,24.3,23.4,00.0,33.5,26.0,13.9,0000.0,0007.18,0001.52,0000.75
2022-04-05 20:25:00,,0813.7,5.00,0.00,24.2,23.3,00.0,33.5,26.0,13.8,0000.0,0007.01,0001.47,0000.75
2022-04-05 20:26:00,,0813.8,5.00,0.00,24.2,23.3,00.0,33.5,25.9,13.2,0000.0,0006.89,0001.43,0000.74
2022-04-05 20:27:00,,0813.8,5.00,0.00,24.2,23.3,00.0,33.4,25.9,13.3,0000.0,0006.80,0001.38,0000.72
2022-04-05 20:28:00,,0813.8,5.00,0.00,24.2,23.4,00.0,33.4,25.9,13.2,0000.0,0004.93,0001.36,0000.70
2022-04-05 20:29:00,,0813.8,5.00,0.00,24.2,23.4,00.0,33.4,25.9,12.8,0000.0,0005.45,0001.38,0000.69
2022-04-05 20:30:00,,0814.1,5.00,0.00,24.2,23.4,00.0,33.4,25.9,13.1,0000.0,0005.96,0001.32,0000.67
2022-04-05 20:31:00,,0813.8,5.00,0.00,24.2,23.4,00.0,33.4,25.9,13.1,0000.0,0006.77,0001.25,0000.65
2022-04-05 20:32:00,,0814.1,5.00,0.00,24.2,23.5,00.0,33.4,25.9,13.0,0000.0,0006.76,0001.25,0000.65
2022-04-05 20:33:00,,0814.1,5.01,0.00,24.2,23.5,00.0,33.3,25.9,13.3,0000.0,0006.03,0001.21,0000.63
2022-04-05 20:34:00,,0814.3,5.00,0.00,24.2,23.5,00.0,33.3,25.9,13.2,0000.0,0005.83,0001.13,0000.63
2022-04-05 20:35:00,,0814.1,5.00,0.00,24.2,23.5,00.0,33.3,26.0,12.9,0000.0,0005.30,0001.06,0000.62
2022-04-05 20:36:00,,0813.9,5.00,0.00,24.2,23.5,00.0,33.3,26.0,12.3,0000.0,0005.22,0001.10,0000.61
2022-04-05 20:37:00,,0814.0,5.00,0.00,24.2,23.6,00.0,33.3,26.0,12.5,0000.0,0005.53,0001.17,0000.61
2022-04-05 20:38:00,,0813.5,5.00,0.00,24.2,23.6,00.0,33.3,26.0,12.4,0000.0,0005.64,0001.20,0000.61
2022-04-05 20:39:00,,0813.7,4.99,0.00,24.3,23.7,00.0,33.3,26.1,11.0,0000.0,0005.85,0001.22,0000.62
2022-04-05 20:40:00,,0813.6,5.00,0.00,24.3,23.8,00.0,33.3,26.1,11.1,0000.0,0006.51,0001.23,0000.64
2022-04-05 20:41:00,,0813.7,5.01,0.00,24.3,23.8,00.0,33.3,26.2,11.0,0000.0,0006.58,0001.32,0000.64
2022-04-05 20:42:00,,0814.2,5.00,0.00,24.4,23.8,00.0,33.3,26.2,11.2,0000.0,0005.43,0001.33,0000.64
2022-04-05 20:43:00,,0813.7,5.00,0.00,24.4,23.8,00.0,33.3,26.2,11.4,0000.0,0005.62,0001.40,0000.65
2022-04-05 20:44:00,,0813.9,5.00,0.00,24.4,23.9,00.0,33.4,26.3,11.1,0000.0,0005.97,0001.51,0000.65
2022-04-05 20:45:00,,0813.8,5.01,0.00,24.4,24.0,00.0,33.4,26.3,10.8,0000.0,0006.10,0001.51,0000.65
2022-04-05 20:46:00,,0813.7,5.01,0.00,24.5,24.0,00.0,33.4,26.3,10.9,0000.0,0006.16,0001.55,0000.66
2022-04-05 20:47:00,,0813.9,5.00,0.00,24.5,24.1,00.0,33.4,26.4,10.6,0000.0,0006.38,0001.63,0000.68
2022-04-05 20:48:00,,0814.1,5.01,0.00,24.5,24.1,00.0,33.4,26.4,10.6,0000.0,0006.28,0001.61,0000.68
2022-04-05 20:49:00,,0813.8,4.99,0.00,24.6,24.1,00.0,33.4,26.5,10.7,0000.0,0006.27,0001.61,0000.69
2022-04-05 20:50:00,,0813.8,5.01,0.00,24.6,24.1,00.0,33.4,26.5,10.7,0000.0,0006.36,0001.62,0000.69
2022-04-05 20:51:00,,0813.9,5.00,0.00,24.6,24.1,00.0,33.5,26.5,10.3,0000.0,0005.30,0001.63,0000.69
2022-04-05 20:52:00,,0813.7,5.01,0.00,24.6,24.1,00.0,33.5,26.5,10.4,0000.0,0004.14,0001.64,0000.70
2022-04-05 20:53:00,,0813.9,4.99,0.00,24.6,24.1,00.0,33.5,26.5,10.4,0000.0,0004.03,0001.66,0000.71
2022-04-05 20:54:00,,0813.9,4.99,0.00,24.7,24.0,00.0,33.5,26.6,10.2,0000.0,0004.05,0001.68,0000.72
2022-04-05 20:55:00,,0814.0,5.01,0.00,24.7,24.0,00.0,33.5,26.6,10.2,0000.0,0004.38,0001.68,0000.74
2022-04-05 20:56:00,,0814.1,5.01,0.00,24.7,24.1,00.0,33.5,26.6,10.0,0000.0,0006.43,0001.69,0000.76
2022-04-05 20:57:00,,0814.1,4.99,0.00,24.7,24.1,00.0,33.6,26.6,10.0,0000.0,0007.28,0001.74,0000.77
2022-04-05 20:58:00,,0814.2,5.00,0.00,24.7,24.1,00.0,33.6,26.6,10.1,0000.0,0007.53,0001.81,0000.78
2022-04-05 20:59:00,,0814.0,5.00,0.00,24.8,24.1,00.0,33.6,26.6,10.2,0000.0,0007.96,0001.92,0000.79
